Temperature
19 21 21 22 22 20 21 19 20 20 20 21 20 20 21 22 22 22 22 23 23 23 23 23 23 22 22 22 21 21 21 20 20 19 19 18 18 18 17 17 16 16 16 16
20 21 21 22 22 21 21 21 21 21 21 20 20 21 21 21 21 22 23 23 23 23 23 23 23 22 22 22 21 21 20 20 19 19 19 18 18 17 17 17 16 16 16 16
18 20 22 21 22 21 21 21 21 21 21 20 19 19 21 21 22 22 23 24 23 23 23 23 23 23 22 22 21 21 20 20 19 19 18 18 18 17 17 16 16 16 15 15
16 20 21 20 21 21 21 21 20 20 20 19 20 21 22 22 23 23 23 23 23 23 23 23 22 22 22 21 21 20 20 19 19 19 18 18 17 17 17 16 16 16 15 15
15 18 19 21 21 20 20 21 20 19 19 19 20 20 20 22 23 23 24 24 23 23 23 22 22 22 22 21 21 20 20 19 19 18 18 18 17 17 17 16 16 15 15 15
15 18 19 20 21 21 21 20 19 19 18 18 19 19 20 22 22 22 23 23 23 22 22 22 22 21 21 21 20 20 19 19 19 18 18 18 17 17 16 16 15 15 15 14
15 17 18 19 19 20 20 20 19 19 18 18 19 20 21 22 22 22 22 22 22 22 22 22 21 21 20 20 20 20 19 19 18 18 17 17 17 16 16 16 15 15 15 14
14 16 17 18 18 18 18 19 19 19 19 19 20 21 21 21 21 21 21 21 22 22 21 21 21 20 20 20 20 19 19 18 18 17 17 17 16 16 16 15 15 15 14 14
14 15 16 16 17 18 18 18 19 19 19 19 20 20 20 20 21 21 21 21 21 21 21 21 20 20 20 20 19 19 18 18 17 17 16 16 16 16 15 15 15 14 14 14
13 14 15 16 17 18 18 18 19 19 19 20 20 20 20 20 20 20 20 20 20 21 20 20 20 19 19 19 19 18 18 17 17 16 16 15 15 15 15 15 14 14 14 14
13 14 15 16 17 17 18 18 19 19 19 19 20 19 20 20 20 20 19 20 20 20 20 20 19 19 19 18 18 18 17 17 16 16 15 15 15 14 14 14 14 14 14 13
14 14 14 15 16 17 18 18 18 18 19 19 19 19 19 19 19 19 19 19 19 19 19 19 18 18 18 18 17 17 17 17 16 15 15 15 14 14 14 14 13 13 13 13
15 15 15 16 16 17 17 17 18 18 18 18 18 18 19 19 18 18 18 18 18 18 18 18 18 17 17 17 17 17 16 16 16 15 15 14 14 14 13 13 13 13 13 13
15 15 15 16 16 16 17 17 17 17 17 17 18 18 18 18 18 18 18 18 17 17 17 17 17 17 17 16 16 16 16 16 15 15 14 14 14 13 13 13 13 13 13 12
15 15 15 15 16 16 16 16 16 16 16 16 16 17 17 17 17 17 17 17 17 17 17 16 16 16 16 16 16 15 15 15 15 14 14 14 13 13 13 13 13 12 12 12
14 15 15 15 15 15 16 16 15 15 15 15 16 16 16 16 16 16 16 16 16 16 16 16 16 16 15 15 15 15 15 15 14 14 14 13 13 13 13 12 12 12 12 12
14 14 14 14 15 15 15 15 15 15 15 15 15 15 15 15 15 15 16 16 16 16 15 15 15 15 15 15 15 14 14 14 14 14 13 13 13 12 12 12 12 12 12 12
14 14 14 14 14 15 15 15 15 15 15 15 15 15 15 15 15 15 15 15 15 15 15 15 14 14 14 14 14 14 14 13 13 13 13 13 13 12 12 12 12 12 12 11
13 14 14 14 14 14 14 14 14 14 14 15 15 14 14 15 15 15 15 15 14 14 14 14 14 14 14 14 13 13 13 13 13 13 13 12 12 12 12 12 12 12 12 11
13 13 14 14 14 14 14 14 14 14 14 14 14 14 14 14 14 14 14 14 14 14 14 14 14 13 13 13 13 13 13 13 12 12 12 12 12 12 12 12 12 12 11 11
13 13 13 13 13 13 14 14 14 14 14 14 14 14 14 14 14 14 14 14 14 14 14 14 13 13 13 13 13 13 13 12 12 12 12 12 12 12 12 12 11 11 11 11
13 13 13 13 13 13 13 13 13 14 14 14 14 14 14 14 14 14 14 14 14 14 14 13 13 13 13 13 13 13 13 12 12 12 12 12 12 12 11 11 11 11 11 11
13 13 13 13 13 13 13 13 13 13 13 14 14 14 14 14 14 14 14 14 13 13 13 13 13 13 13 12 12 12 12 12 12 12 12 12 12 11 11 11 11 11 11 11
12 12 12 12 12 13 13 13 13 13 13 13 13 13 13 13 13 13 13 13 13 13 13 13 13 13 12 12 12 12 12 12 12 12 12 12 11 11 11 11 11 11 11 11
12 12 12 12 12 12 12 12 12 13 13 13 13 13 13 13 13 13 13 13 13 12 12 12 12 12 12 12 12 12 12 12 12 12 11 11 11 11 11 11 11 11 11 10
11 11 11 12 12 12 12 12 12 12 12 12 12 12 12 12 12 12 12 12 12 12 12 12 12 12 12 12 12 12 11 11 11 11 11 11 11 11 11 11 10 10 10 10
11 11 11 11 11 11 11 11 11 11 12 12 12 12 12 12 12 12 12 12 12 12 12 12 12 12 12 11 11 11 11 11 11 11 11 11 11 10 10 10 10 10 10 10
Wind_Speed
4 4 4 4 6 8 7 9 9 10 9 11 9 8 7 6 6 7 7 8 9 9 8 8 8 8 8 8 8 8 9 8 7 6 6 5 5 4 3 4 4 4 4 4
1 2 4 3 5 8 6 6 6 4 8 8 4 3 4 6 8 8 9 9 9 9 9 9 9 9 9 8 8 9 9 8 7 6 6 5 5 4 4 4 4 4 4 4
3 2 2 4 6 6 5 5 7 8 9 3 3 7 9 9 9 9 9 9 9 9 9 9 9 9 9 9 8 9 9 8 7 7 6 5 5 5 5 4 4 4 4 4
3 3 6 9 3 4 4 4 5 5 5 5 6 5 5 6 9 9 8 8 8 8 7 6 7 8 9 9 9 9 8 8 7 7 6 6 6 5 4 4 4 3 3 3
5 4 4 6 2 4 4 4 4 5 3 2 2 2 1 3 5 7 7 7 7 7 7 7 8 9 10 10 9 9 8 8 8 8 7 6 6 5 4 4 4 3 3 3
5 5 7 7 3 2 4 3 3 4 4 3 5 3 5 3 4 5 5 6 6 7 8 8 8 9 10 10 9 9 8 8 7 7 8 7 6 5 4 4 4 4 3 3
5 4 6 5 5 1 5 7 3 4 5 6 5 5 3 2 4 5 6 7 8 9 8 7 9 10 9 8 8 8 7 7 7 7 7 7 6 5 5 5 5 4 3 2
4 4 6 4 2 4 5 3 2 3 4 4 2 1 2 4 5 6 6 6 8 8 7 6 9 10 9 8 7 8 8 8 7 6 6 6 7 6 6 6 5 4 3 2
6 6 4 3 2 3 2 2 2 2 1 3 2 2 3 4 4 5 5 5 6 8 7 6 7 9 10 7 8 9 9 8 7 6 5 6 6 6 5 5 4 3 3 2
0 3 3 4 3 3 2 2 2 0 1 2 3 4 4 4 4 5 4 4 5 7 7 6 6 6 7 7 8 9 9 7 7 6 5 5 4 5 5 5 5 4 4 3
1 3 3 4 5 5 4 3 3 3 3 1 3 3 4 3 4 4 5 4 4 6 6 6 6 6 7 8 9 8 8 7 6 6 6 5 4 3 5 5 6 6 5 5
5 5 3 3 4 4 3 3 2 3 4 3 2 3 3 3 2 3 5 5 5 5 6 5 6 6 6 7 9 9 7 7 6 6 5 5 5 2 2 2 5 6 6 5
5 3 3 4 3 2 2 2 2 2 2 1 2 3 3 2 2 2 4 4 5 5 5 5 6 6 6 7 8 9 8 7 6 6 6 6 6 5 3 1 2 3 4 5
4 2 2 3 3 2 2 2 3 4 3 2 1 3 3 3 2 2 2 3 4 5 5 5 6 6 6 7 8 7 8 8 7 6 6 6 6 6 5 5 3 1 0 3
3 3 4 2 2 2 1 2 3 3 2 2 1 1 2 3 3 2 2 3 4 5 5 5 6 6 6 7 8 8 7 6 6 6 5 5 5 5 5 5 4 3 1 1
1 1 2 1 2 2 0 1 1 1 1 1 1 1 0 2 2 2 2 4 5 5 5 5 5 5 6 7 7 7 6 8 7 6 5 5 5 5 5 4 4 4 4 4
3 3 2 2 3 2 2 2 2 1 1 0 1 1 1 2 1 1 1 2 3 3 4 5 5 5 6 7 7 6 5 6 8 6 6 6 5 5 5 5 5 5 4 5
4 5 5 5 4 3 2 1 1 1 1 1 1 1 2 2 2 2 2 2 2 2 3 4 4 5 6 7 6 5 5 5 5 5 5 5 5 5 5 5 5 5 4 4
1 2 3 3 3 2 2 1 2 2 1 1 2 2 2 2 3 2 2 3 3 3 3 4 5 5 5 6 6 5 6 6 5 5 5 5 5 5 5 5 5 5 5 5
0 0 0 1 1 2 2 2 2 2 2 3 3 2 1 1 2 3 3 3 3 3 4 5 5 5 5 6 6 5 6 6 5 5 4 4 4 4 4 4 4 5 5 5
1 0 1 1 1 1 2 2 2 2 3 4 5 4 3 2 1 3 3 2 1 3 5 6 5 4 5 5 6 5 5 5 5 5 5 4 4 4 4 4 4 4 5 5
1 1 1 1 1 0 0 1 1 2 2 3 3 4 3 2 2 2 2 2 2 4 4 3 3 4 5 6 5 5 5 5 4 4 4 4 4 4 4 4 4 4 4 4
0 0 1 1 1 1 0 0 0 1 2 2 3 4 4 3 3 3 2 2 2 4 4 3 3 5 7 5 4 5 5 5 4 4 4 4 4 4 4 4 4 4 4 4
0 1 1 1 1 1 1 1 1 1 1 1 1 2 3 2 1 1 2 2 4 4 3 4 5 7 7 4 4 4 4 4 4 3 3 3 3 3 3 3 3 3 4 5
1 1 1 1 1 1 1 1 1 1 2 1 1 1 2 2 2 1 1 2 4 4 3 4 6 6 5 3 4 4 3 3 3 3 3 3 3 3 3 3 3 3 3 4
1 0 1 1 1 1 1 0 0 0 0 1 1 1 1 1 1 1 2 2 3 4 3 3 4 5 4 4 3 3 3 3 3 3 3 3 3 3 3 3 3 3 3 3
1 1 1 1 1 0 1 1 1 1 1 1 1 0 1 1 2 2 2 2 3 3 3 3 4 4 4 4 3 3 3 3 3 3 3 2 2 2 3 3 3 3 3 3
Wind_Direction
211 214 183 186 187 181 181 182 182 220 225 243 231 218 209 189 171 160 161 166 169 169 165 158 153 153 151 149 149 149 147 151 155 150 141 133 127 119 107 97 93 89 82 70
204 239 198 203 203 188 194 189 205 222 248 253 233 180 184 182 176 179 179 179 176 169 163 163 162 161 156 154 154 149 150 152 147 143 139 137 134 124 111 99 93 87 81 77
205 277 98 235 213 185 191 193 173 204 236 233 200 199 200 194 188 191 189 180 176 175 174 170 168 164 162 157 149 148 149 148 147 147 145 146 142 129 124 117 105 95 87 84
140 121 202 237 241 195 184 219 209 225 238 214 216 214 209 195 189 190 184 178 176 170 167 160 154 149 146 145 149 150 149 150 151 150 150 147 139 137 133 123 116 107 97 91
132 169 252 283 231 168 173 250 236 220 230 223 127 73 319 220 188 188 180 170 168 161 151 146 150 149 144 146 150 150 154 157 158 155 153 150 147 146 138 131 121 112 107 99
135 156 214 237 271 256 137 258 258 193 196 183 128 158 242 223 177 168 151 143 144 139 133 138 143 142 145 152 155 161 163 159 155 152 152 155 154 145 132 131 131 124 104 93
153 186 247 261 292 90 159 235 254 178 180 176 186 211 228 171 152 151 147 144 140 138 141 147 144 143 149 157 168 165 152 147 147 150 152 152 145 137 134 132 125 119 108 86
149 173 238 307 23 156 217 268 229 182 174 175 196 165 124 129 134 134 135 133 135 136 138 139 145 148 153 169 168 149 145 146 149 151 152 148 143 139 138 137 131 125 113 87
185 206 253 300 260 269 241 247 242 199 188 155 154 153 135 125 124 128 131 135 137 138 136 141 152 155 161 168 153 145 144 149 150 148 146 148 150 150 146 147 148 152 150 152
207 284 293 309 316 324 301 256 284 199 150 157 160 154 142 133 126 124 128 134 137 139 145 155 160 159 158 154 150 147 150 153 152 150 149 147 149 158 163 167 168 170 177 183
235 275 321 339 341 339 353 26 52 44 37 62 132 147 149 141 136 139 140 143 147 156 162 169 160 157 154 154 150 152 155 155 155 156 155 154 154 163 175 187 187 182 192 190
218 225 199 265 305 333 10 27 57 60 31 28 105 136 131 134 146 144 145 143 148 158 160 161 159 155 158 158 156 155 159 162 164 163 161 161 159 133 74 163 181 185 187 188
229 234 225 259 304 343 13 5 23 43 58 54 87 123 129 134 142 144 149 149 162 167 161 158 156 157 163 161 160 164 167 169 168 169 170 173 174 171 168 86 102 161 183 185
233 221 270 286 303 327 24 38 50 41 43 85 116 123 129 126 130 140 164 173 163 156 155 158 158 164 167 164 162 165 163 166 170 176 177 180 182 182 181 179 184 221 198 174
267 221 217 249 306 323 5 55 48 29 29 37 52 91 131 145 156 177 180 169 151 151 160 165 167 171 163 163 163 164 163 167 168 170 176 179 180 179 180 181 183 185 176 164
223 172 176 211 258 266 251 108 120 331 1 25 44 35 125 145 154 174 174 169 164 172 179 176 176 175 167 162 160 162 165 165 165 168 172 176 178 178 180 183 189 194 201 200
202 220 208 215 245 252 235 203 193 232 285 337 103 120 126 114 121 165 191 197 182 179 178 176 175 167 166 162 159 162 163 169 167 168 176 179 181 186 188 189 196 204 212 203
219 224 216 204 211 233 242 213 186 200 216 211 134 133 152 160 184 212 218 187 145 152 171 169 163 161 163 162 160 160 163 167 172 176 179 181 186 188 189 194 200 205 208 195
213 214 212 202 208 210 221 220 210 205 187 158 137 162 192 195 191 200 177 149 166 189 188 164 156 161 166 166 158 160 164 167 171 177 181 180 185 191 193 198 201 205 203 196
251 281 158 182 194 185 213 236 215 187 168 150 138 139 157 213 185 162 160 172 197 198 176 164 159 163 169 169 159 161 162 166 173 179 179 185 191 196 199 200 199 199 201 203
168 108 110 144 180 182 196 210 193 190 178 161 163 176 186 202 189 159 158 179 214 161 156 152 155 164 167 166 164 163 162 167 174 178 182 188 191 196 200 198 197 201 207 209
179 167 225 218 197 252 246 205 185 175 164 174 184 182 179 196 208 193 195 195 180 146 146 154 161 169 168 163 167 165 165 167 170 174 183 187 188 193 199 201 205 208 209 210
175 203 235 241 229 228 342 77 158 169 167 177 182 181 184 190 185 179 208 211 165 156 161 173 172 166 162 161 164 165 167 168 172 180 185 188 190 194 203 208 210 207 204 202
204 230 242 249 118 81 42 4 26 87 125 148 167 170 166 162 169 201 192 171 163 167 178 181 172 165 160 165 162 164 169 173 176 182 182 181 187 196 204 208 209 205 201 198
228 225 183 161 173 245 255 329 29 42 66 55 58 114 145 161 176 182 142 150 162 162 169 176 168 160 157 157 157 158 164 173 173 172 174 178 188 193 195 197 199 196 194 196
174 199 233 222 226 235 221 173 187 303 85 57 14 25 80 110 137 150 133 133 142 152 161 160 152 152 153 147 141 143 146 154 159 166 171 172 175 175 178 181 188 192 189 187
94 85 65 33 7 350 178 192 203 232 195 167 174 343 94 109 118 122 125 127 128 137 145 141 139 143 143 140 136 140 143 146 153 158 160 161 166 175 179 176 174 173 172 175
Height
1495 1491 1492 1492 1495 1499 1501 1507 1514 1509 1505 1492 1487 1487 1487 1488 1490 1493 1495 1498 1501 1504 1507 1511 1515 1518 1522 1525 1528 1531 1534 1536 1538 1540 1541 1542 1542 1543 1543 1543 1543 1543 1543 1542
1494 1491 1490 1491 1490 1493 1494 1497 1499 1498 1497 1484 1483 1485 1486 1487 1489 1491 1493 1496 1499 1502 1506 1509 1513 1516 1520 1524 1527 1530 1532 1535 1537 1538 1540 1541 1542 1542 1543 1543 1543 1543 1543 1542
1503 1494 1491 1498 1489 1489 1490 1489 1491 1495 1488 1482 1483 1482 1482 1484 1486 1488 1491 1494 1497 1500 1504 1507 1511 1514 1518 1522 1525 1528 1531 1533 1535 1537 1538 1539 1540 1541 1542 1542 1542 1543 1543 1542
1506 1500 1509 1493 1480 1480 1483 1483 1483 1482 1480 1479 1478 1479 1480 1482 1484 1486 1489 1492 1496 1499 1503 1506 1510 1513 1517 1521 1524 1527 1529 1531 1533 1535 1537 1538 1539 1540 1541 1541 1542 1542 1542 1542
1509 1508 1500 1486 1478 1479 1483 1483 1479 1479 1478 1478 1478 1480 1481 1481 1483 1485 1488 1492 1495 1498 1501 1505 1509 1512 1515 1519 1522 1525 1527 1529 1531 1533 1535 1536 1537 1539 1539 1540 1541 1541 1542 1542
1505 1506 1506 1487 1475 1474 1478 1485 1476 1476 1477 1478 1478 1484 1480 1479 1481 1484 1488 1491 1493 1496 1500 1503 1507 1511 1514 1517 1520 1523 1525 1528 1530 1531 1533 1534 1536 1537 1538 1539 1540 1540 1541 1541
1501 1501 1493 1479 1474 1474 1489 1485 1474 1473 1474 1476 1477 1477 1477 1477 1480 1483 1486 1489 1492 1495 1499 1502 1505 1509 1512 1515 1518 1521 1524 1526 1528 1530 1531 1533 1534 1535 1537 1538 1538 1539 1540 1540
1499 1500 1495 1476 1474 1478 1479 1473 1472 1471 1472 1474 1474 1475 1475 1476 1479 1482 1485 1488 1491 1494 1497 1501 1504 1507 1510 1513 1517 1519 1522 1524 1526 1528 1529 1531 1532 1533 1535 1536 1537 1538 1538 1539
1488 1488 1479 1475 1475 1474 1473 1472 1471 1471 1471 1473 1474 1474 1475 1476 1478 1481 1484 1487 1491 1494 1497 1500 1503 1506 1508 1511 1515 1517 1519 1521 1524 1526 1527 1529 1530 1531 1532 1534 1535 1536 1537 1538
1483 1479 1476 1475 1474 1472 1471 1470 1470 1470 1471 1472 1472 1473 1475 1476 1478 1480 1483 1486 1489 1493 1496 1499 1501 1504 1506 1510 1513 1515 1517 1519 1521 1523 1525 1526 1528 1529 1530 1532 1533 1534 1535 1536
1481 1477 1474 1472 1472 1471 1470 1470 1470 1470 1471 1472 1472 1474 1475 1476 1478 1480 1482 1486 1489 1491 1494 1497 1499 1502 1505 1508 1511 1513 1515 1517 1519 1521 1523 1524 1525 1527 1528 1530 1531 1533 1534 1535
1478 1474 1474 1473 1472 1471 1470 1470 1470 1470 1470 1471 1473 1474 1475 1477 1478 1480 1482 1485 1487 1490 1492 1494 1497 1500 1503 1505 1508 1510 1512 1514 1516 1518 1520 1521 1523 1524 1526 1528 1529 1530 1531 1532
1472 1472 1472 1471 1471 1471 1470 1470 1470 1470 1470 1470 1472 1473 1475 1477 1478 1480 1481 1483 1485 1487 1489 1492 1494 1497 1500 1503 1505 1508 1509 1511 1513 1515 1517 1519 1520 1521 1523 1525 1526 1527 1528 1529
1470 1470 1470 1469 1469 1469 1469 1469 1469 1469 1470 1471 1472 1472 1473 1475 1477 1479 1480 1482 1484 1485 1487 1490 1492 1494 1497 1500 1502 1505 1507 1509 1510 1512 1514 1516 1518 1519 1520 1521 1522 1524 1525 1527
1468 1468 1469 1468 1468 1468 1468 1468 1468 1469 1470 1470 1471 1471 1472 1473 1475 1477 1479 1481 1482 1483 1485 1487 1489 1492 1494 1497 1500 1502 1504 1505 1507 1509 1511 1513 1515 1516 1517 1519 1520 1521 1522 1524
1466 1467 1467 1467 1467 1467 1466 1466 1467 1468 1469 1469 1470 1471 1472 1473 1474 1476 1478 1479 1480 1480 1482 1484 1486 1489 1492 1494 1497 1498 1500 1502 1504 1506 1508 1510 1511 1513 1514 1515 1517 1518 1519 1520
1464 1464 1465 1466 1466 1465 1465 1465 1466 1467 1467 1467 1468 1470 1471 1472 1473 1474 1475 1476 1477 1478 1480 1482 1484 1486 1489 1491 1493 1495 1497 1499 1500 1502 1504 1506 1508 1509 1511 1512 1513 1514 1516 1517
1462 1462 1463 1464 1464 1463 1463 1463 1464 1465 1466 1466 1466 1469 1470 1471 1472 1473 1474 1474 1475 1477 1478 1480 1482 1484 1486 1488 1490 1492 1494 1496 1498 1499 1501 1503 1504 1506 1507 1509 1510 1511 1512 1514
1460 1460 1461 1461 1461 1462 1462 1462 1462 1463 1464 1465 1466 1467 1469 1470 1470 1471 1472 1472 1474 1475 1476 1478 1481 1483 1485 1486 1488 1490 1491 1493 1495 1497 1499 1501 1502 1503 1504 1505 1506 1507 1509 1510
1457 1458 1458 1459 1459 1460 1460 1460 1461 1462 1462 1464 1465 1467 1468 1468 1469 1469 1471 1471 1472 1474 1475 1477 1478 1480 1483 1485 1486 1487 1489 1491 1493 1494 1496 1498 1499 1500 1501 1502 1503 1504 1505 1506
1456 1456 1457 1457 1458 1458 1459 1460 1460 1460 1461 1462 1463 1465 1466 1467 1468 1468 1469 1470 1472 1473 1474 1475 1477 1479 1481 1483 1484 1485 1486 1489 1491 1492 1494 1495 1496 1497 1498 1499 1500 1501 1502 1503
1455 1455 1456 1457 1457 1457 1458 1458 1458 1459 1459 1460 1461 1463 1464 1465 1467 1468 1468 1470 1471 1472 1473 1474 1476 1478 1480 1481 1482 1483 1485 1487 1489 1491 1492 1493 1494 1495 1496 1497 1498 1498 1499 1500
1454 1455 1456 1456 1456 1456 1457 1457 1457 1457 1457 1458 1459 1460 1462 1463 1465 1466 1467 1469 1470 1471 1472 1474 1475 1477 1478 1479 1480 1482 1484 1485 1487 1489 1490 1491 1492 1493 1494 1494 1495 1496 1496 1497
1454 1454 1455 1455 1455 1455 1455 1456 1456 1456 1456 1457 1459 1460 1461 1462 1464 1465 1466 1467 1469 1470 1472 1473 1474 1476 1477 1478 1479 1480 1482 1484 1485 1487 1488 1489 1490 1491 1492 1492 1493 1493 1494 1494
1453 1453 1453 1454 1454 1454 1454 1455 1455 1455 1456 1457 1458 1460 1461 1462 1463 1464 1465 1466 1468 1469 1471 1472 1473 1475 1476 1477 1478 1479 1481 1483 1484 1485 1486 1487 1488 1489 1489 1490 1490 1491 1491 1492
1452 1452 1452 1452 1453 1453 1453 1454 1455 1455 1456 1456 1457 1458 1460 1461 1462 1463 1464 1465 1467 1468 1470 1471 1472 1473 1474 1476 1477 1479 1480 1481 1483 1484 1485 1485 1487 1487 1488 1488 1488 1489 1489 1490
1450 1451 1451 1451 1452 1452 1453 1454 1454 1454 1455 1456 1457 1458 1459 1460 1461 1462 1463 1464 1466 1467 1468 1470 1471 1472 1474 1475 1476 1478 1479 1480 1481 1482 1483 1484 1485 1486 1486 1487 1487 1487 1487 1487